{"data":{"norad_id":63962,"epoch":"2026-05-25T04:07:25.496832Z","epoch_age_seconds":50431,"freshness":"FRESH","line1":"1 63962U 25099L   26145.17182288  .00016936  00000+0  62326-3 0  9992","line2":"2 63962  42.9996 104.2539 0001335 273.5916  86.4782 15.27595691 59038","mean_motion":15.27595691,"eccentricity":0.0001335,"inclination_deg":42.9996,"raan_deg":104.2539,"arg_perigee_deg":273.5916,"mean_anomaly_deg":86.4782,"bstar":0.00062326,"rev_number":5903,"period_min":94.265780434176,"perigee_km":482.08614987158,"apogee_km":483.91807401447,"semimajor_km":6861.139111943,"source":"CELESTRAK","updated_at":"2026-05-25T13:38:20.212861Z"}}